Flag for Germany Weather past 2 weeks in Giessen, Hesse, Germany

Now
57 °F

Overcast.


Feels Like: 57 °F
Forecast: 46 / 65 °F
Wind: 3 mph from West

Location: Giessen

Current Time: May 27, 2015 at 4:50:05 PM

Latest Report: May 27, 2015 at 4:00 PM


Visibility: 44 mi

Pressure: 30.22 "Hg

Humidity: 46%

Dew point: 37 °F

Location of GiessenLocation

Historic Weather in Giessen — Graph

°F

Giessen temperature yesterday

Maximum temperature yesterday: 56 °F (at 2:00 PM)
Minimum temperature yesterday: 49 °F (at 11:00 PM)
Average temperature yesterday: 52 °F

Past Weeks' High & Low Weather Summary

 TemperatureHumidityPressure
High78 °F (May 12, 4:00 PM)97% (May 25, 4:00 AM)30.36 "Hg (May 25, 4:00 AM)
Low36 °F (May 27, 3:00 AM)31% (May 18, 6:00 PM)29.67 "Hg (May 18, 8:00 PM)
Average55 °F65%30.06 "Hg
* Reported May 12 4:00 PM — May 27 4:00 PM, Giessen, Weather by CustomWeather, © 2015

Note: Actual official high and low records may vary slightly from our data, if they occured in-between our weather recording intervals... More about our weather records

Advertising

Giessen weather history for previous 24 hours

 ConditionsComfort  
Time TempWeatherWind HumidityBarometerVisibility
4:00 PM
Wed, May 27
57 °FOvercast.3 mph46%30.22 "Hg43 mi
3:00 PM56 °FOvercast.2 mph43%30.23 "Hg43 mi
2:00 PM55 °FOvercast.3 mph48%30.24 "Hg43 mi
1:00 PM54 °FOvercast.3 mph52%30.26 "Hg43 mi
12:00 PM53 °FOvercast.1 mph52%30.27 "Hg43 mi
11:00 AM52 °FOvercast.2 mph60%30.27 "Hg43 mi
10:00 AM50 °FOvercast.2 mph74%30.29 "Hg19 mi
9:00 AM46 °FOvercast.2 mph80%30.28 "Hg17 mi
8:00 AM44 °FOvercast.1 mph88%30.28 "Hg15 mi
7:00 AM42 °FOvercast.No wind93%30.27 "Hg11 mi
6:00 AM40 °FOvercast.1 mph92%30.27 "Hg16 mi
5:00 AM39 °FPassing clouds.1 mph95%30.27 "Hg9 mi
4:00 AM39 °FClear.1 mph91%30.26 "Hg17 mi
3:00 AM36 °FClear.2 mph92%30.26 "Hg13 mi
2:00 AM42 °FClear.2 mph88%30.24 "Hg22 mi
1:00 AM40 °FClear.3 mph91%30.24 "Hg19 mi
12:00 AM42 °FClear.2 mph86%30.22 "Hg19 mi
11:00 PM
Tue, May 26
49 °FPassing clouds.1 mph68%30.20 "Hg34 mi
10:00 PM50 °FOvercast.1 mph70%30.20 "Hg37 mi
9:00 PM52 °FOvercast.1 mph67%30.18 "Hg43 mi
8:00 PM53 °FOvercast.5 mph58%30.17 "Hg43 mi
7:00 PM54 °FOvercast.5 mph57%30.14 "Hg34 mi
6:00 PM53 °FOvercast.6 mph59%30.15 "Hg28 mi
5:00 PM54 °FOvercast.6 mph55%30.14 "Hg40 mi
4:00 PM55 °FOvercast.5 mph52%30.12 "Hg43 mi
Weather by CustomWeather, © 2015

See weather overviewHow to use our weather pages